Time,TemperatureF,DewpointF,PressureIn,WindDirection,WindDirectionDegrees,WindSpeedMPH,WindSpeedGustMPH,Humidity,HourlyPrecipIn,Conditions,Clouds,dailyrainin,SolarRadiationWatts/m^2,SoftwareType,DateUTC
2013-02-23 00:02:00,27.7,22.0,29.92,West,272,9.0,11.1,82,0.00,,,0.00,0,TxWx,2013-02-23 06:02:00,
2013-02-23 00:07:00,27.6,22.0,29.92,WSW,255,6.9,7.5,82,0.00,,,0.00,0,TxWx,2013-02-23 06:07:00,
2013-02-23 00:13:00,27.6,22.0,29.92,WSW,246,8.4,8.7,82,0.00,,,0.00,0,TxWx,2013-02-23 06:13:00,
2013-02-23 00:18:00,27.6,22.0,29.92,SW,234,8.1,9.6,82,0.00,,,0.00,0,TxWx,2013-02-23 06:18:00,
2013-02-23 00:23:00,27.7,22.0,29.92,WSW,255,8.1,8.1,82,0.00,,,0.00,0,TxWx,2013-02-23 06:23:00,
2013-02-23 00:28:00,27.6,22.0,29.92,WSW,247,6.6,6.9,82,0.00,,,0.00,0,TxWx,2013-02-23 06:28:00,
2013-02-23 00:33:00,27.5,22.0,29.92,WSW,254,6.9,6.9,82,0.00,,,0.00,0,TxWx,2013-02-23 06:33:00,
2013-02-23 00:39:00,27.4,21.0,29.92,West,265,11.7,11.7,82,0.00,,,0.00,0,TxWx,2013-02-23 06:39:00,
2013-02-23 00:44:00,27.4,21.0,29.92,West,260,9.3,9.3,82,0.00,,,0.00,0,TxWx,2013-02-23 06:44:00,
2013-02-23 00:49:00,27.4,21.0,29.92,WNW,283,8.7,8.7,82,0.00,,,0.00,0,TxWx,2013-02-23 06:49:00,
2013-02-23 00:54:00,27.4,21.0,29.91,West,260,5.7,6.0,83,0.00,,,0.00,0,TxWx,2013-02-23 06:54:00,
2013-02-23 00:59:00,27.3,21.0,29.91,WSW,247,8.4,9.3,83,0.00,,,0.00,0,TxWx,2013-02-23 06:59:00,
2013-02-23 01:05:00,27.3,21.0,29.92,WSW,257,8.1,8.1,83,0.00,,,0.00,0,TxWx,2013-02-23 07:05:00,
2013-02-23 01:10:00,27.2,21.0,29.92,West,265,7.5,7.5,83,0.00,,,0.00,0,TxWx,2013-02-23 07:10:00,
2013-02-23 01:15:00,27.3,21.0,29.92,WSW,245,4.8,4.8,83,0.00,,,0.00,0,TxWx,2013-02-23 07:15:00,
2013-02-23 01:20:00,27.2,22.0,29.92,WSW,253,6.0,7.2,83,0.00,,,0.00,0,TxWx,2013-02-23 07:20:00,
2013-02-23 01:25:00,27.2,22.0,29.92,WSW,257,9.0,9.0,83,0.00,,,0.00,0,TxWx,2013-02-23 07:25:00,
2013-02-23 01:31:00,27.1,22.0,29.92,WNW,286,8.4,9.9,83,0.00,,,0.00,0,TxWx,2013-02-23 07:31:00,
2013-02-23 01:36:00,27.1,22.0,29.92,WSW,242,8.7,8.7,83,0.00,,,0.00,0,TxWx,2013-02-23 07:36:00,
2013-02-23 01:41:00,27.1,22.0,29.91,WSW,257,8.4,8.4,83,0.00,,,0.00,0,TxWx,2013-02-23 07:41:00,
2013-02-23 01:46:00,27.0,22.0,29.92,WSW,258,7.5,7.8,83,0.00,,,0.00,0,TxWx,2013-02-23 07:46:00,
2013-02-23 01:51:00,27.0,22.0,29.92,WSW,247,5.7,5.7,83,0.00,,,0.00,0,TxWx,2013-02-23 07:51:00,
2013-02-23 01:57:00,27.0,22.0,29.91,West,278,13.2,13.5,83,0.00,,,0.00,0,TxWx,2013-02-23 07:57:00,
2013-02-23 02:02:00,27.0,22.0,29.91,SSW,213,10.2,10.2,83,0.00,,,0.00,0,TxWx,2013-02-23 08:02:00,
2013-02-23 02:07:00,27.0,22.0,29.92,WSW,250,13.2,13.2,83,0.00,,,0.00,0,TxWx,2013-02-23 08:07:00,
2013-02-23 02:12:00,27.0,22.0,29.92,WSW,252,5.7,6.9,84,0.00,,,0.00,0,TxWx,2013-02-23 08:12:00,
2013-02-23 02:17:00,26.9,22.0,29.91,WSW,258,9.0,9.0,83,0.00,,,0.00,0,TxWx,2013-02-23 08:17:00,
2013-02-23 02:22:00,26.9,22.0,29.92,SSW,205,4.5,4.5,84,0.00,,,0.00,0,TxWx,2013-02-23 08:22:00,
2013-02-23 02:27:00,26.9,22.0,29.91,West,276,8.4,8.4,83,0.00,,,0.00,0,TxWx,2013-02-23 08:27:00,
2013-02-23 02:32:00,26.8,22.0,29.91,West,267,10.2,10.2,83,0.00,,,0.00,0,TxWx,2013-02-23 08:32:00,
2013-02-23 02:38:00,26.8,22.0,29.92,WSW,253,9.9,9.9,83,0.00,,,0.00,0,TxWx,2013-02-23 08:38:00,
2013-02-23 02:43:00,26.8,22.0,29.92,West,271,10.5,10.8,83,0.00,,,0.00,0,TxWx,2013-02-23 08:43:00,
2013-02-23 02:48:00,26.7,22.0,29.91,WSW,244,9.9,10.8,83,0.00,,,0.00,0,TxWx,2013-02-23 08:48:00,
2013-02-23 02:53:00,26.7,22.0,29.91,SW,228,6.9,7.8,84,0.00,,,0.00,0,TxWx,2013-02-23 08:53:00,
2013-02-23 02:58:00,26.6,22.0,29.91,West,261,9.6,9.6,84,0.00,,,0.00,0,TxWx,2013-02-23 08:58:00,
2013-02-23 03:03:00,26.5,22.0,29.91,West,267,9.0,9.3,84,0.00,,,0.00,0,TxWx,2013-02-23 09:03:00,
2013-02-23 03:08:00,26.5,21.0,29.91,WSW,237,6.3,6.6,84,0.00,,,0.00,0,TxWx,2013-02-23 09:08:00,
2013-02-23 03:14:00,26.4,21.0,29.91,WSW,251,9.0,9.0,84,0.00,,,0.00,0,TxWx,2013-02-23 09:14:00,
2013-02-23 03:19:00,26.4,21.0,29.91,WSW,253,8.1,8.1,84,0.00,,,0.00,0,TxWx,2013-02-23 09:19:00,
2013-02-23 03:24:00,26.3,21.0,29.91,West,267,8.7,8.7,84,0.00,,,0.00,0,TxWx,2013-02-23 09:24:00,
2013-02-23 03:29:00,26.3,21.0,29.91,WSW,255,6.6,6.9,84,0.00,,,0.00,0,TxWx,2013-02-23 09:29:00,
2013-02-23 03:35:00,26.2,21.0,29.91,West,266,8.7,9.0,84,0.00,,,0.00,0,TxWx,2013-02-23 09:35:00,
2013-02-23 03:40:00,26.1,21.0,29.91,West,264,7.5,7.5,84,0.00,,,0.00,0,TxWx,2013-02-23 09:40:00,
2013-02-23 03:45:00,26.1,21.0,29.91,West,261,8.1,9.0,84,0.00,,,0.00,0,TxWx,2013-02-23 09:45:00,
2013-02-23 03:50:00,26.1,21.0,29.91,SW,234,8.7,8.7,83,0.00,,,0.00,0,TxWx,2013-02-23 09:50:00,
2013-02-23 03:55:00,26.0,20.0,29.91,West,269,12.3,13.8,83,0.00,,,0.00,0,TxWx,2013-02-23 09:55:00,
2013-02-23 04:01:00,26.0,20.0,29.91,WSW,238,12.0,13.8,83,0.00,,,0.00,0,TxWx,2013-02-23 10:01:00,
2013-02-23 04:06:00,26.0,20.0,29.91,West,267,8.1,8.1,83,0.00,,,0.00,0,TxWx,2013-02-23 10:06:00,
2013-02-23 04:11:00,25.9,20.0,29.91,WSW,250,10.5,12.9,82,0.00,,,0.00,0,TxWx,2013-02-23 10:11:00,
2013-02-23 04:16:00,25.9,20.0,29.92,WSW,246,10.8,10.8,82,0.00,,,0.00,0,TxWx,2013-02-23 10:16:00,
2013-02-23 04:21:00,25.8,20.0,29.92,WSW,258,7.8,8.4,82,0.00,,,0.00,0,TxWx,2013-02-23 10:21:00,
2013-02-23 04:27:00,25.8,20.0,29.92,West,273,5.1,5.1,82,0.00,,,0.00,0,TxWx,2013-02-23 10:27:00,
2013-02-23 04:32:00,25.7,20.0,29.92,SW,225,7.5,7.5,82,0.00,,,0.00,0,TxWx,2013-02-23 10:32:00,
2013-02-23 04:37:00,25.6,20.0,29.92,West,269,7.5,8.1,82,0.00,,,0.00,0,TxWx,2013-02-23 10:37:00,
2013-02-23 04:42:00,25.6,20.0,29.92,WSW,256,6.0,6.0,82,0.00,,,0.00,0,TxWx,2013-02-23 10:42:00,
2013-02-23 04:48:00,25.6,20.0,29.92,SW,233,7.8,7.8,82,0.00,,,0.00,0,TxWx,2013-02-23 10:48:00,
2013-02-23 04:53:00,25.4,19.0,29.92,West,269,10.5,12.0,82,0.00,,,0.00,0,TxWx,2013-02-23 10:53:00,
2013-02-23 04:58:00,25.4,19.0,29.92,WSW,253,7.5,7.5,82,0.00,,,0.00,0,TxWx,2013-02-23 10:58:00,
2013-02-23 05:03:00,25.4,19.0,29.93,West,260,9.9,9.9,81,0.00,,,0.00,0,TxWx,2013-02-23 11:03:00,
2013-02-23 05:09:00,25.3,19.0,29.92,West,270,6.3,6.3,81,0.00,,,0.00,0,TxWx,2013-02-23 11:09:00,
2013-02-23 05:14:00,25.2,19.0,29.92,WSW,257,5.7,6.3,80,0.00,,,0.00,0,TxWx,2013-02-23 11:14:00,
2013-02-23 05:19:00,25.2,19.0,29.92,West,276,7.5,7.8,80,0.00,,,0.00,0,TxWx,2013-02-23 11:19:00,
2013-02-23 05:25:00,25.1,19.0,29.93,West,261,10.2,10.2,80,0.00,,,0.00,0,TxWx,2013-02-23 11:25:00,
2013-02-23 05:30:00,25.0,19.0,29.93,WSW,256,9.3,10.5,80,0.00,,,0.00,0,TxWx,2013-02-23 11:30:00,
2013-02-23 05:35:00,24.9,19.0,29.93,West,265,11.7,11.7,80,0.00,,,0.00,0,TxWx,2013-02-23 11:35:00,
2013-02-23 05:40:00,24.9,19.0,29.93,West,272,9.0,10.2,80,0.00,,,0.00,0,TxWx,2013-02-23 11:40:00,
2013-02-23 05:45:00,24.9,19.0,29.93,West,268,8.4,8.4,80,0.00,,,0.00,0,TxWx,2013-02-23 11:45:00,
2013-02-23 05:50:00,24.9,19.0,29.93,West,266,5.7,6.0,80,0.00,,,0.00,0,TxWx,2013-02-23 11:50:00,
2013-02-23 05:56:00,24.8,19.0,29.93,West,273,6.6,6.6,80,0.00,,,0.00,0,TxWx,2013-02-23 11:56:00,
2013-02-23 06:01:00,24.7,19.0,29.93,WNW,282,5.7,6.3,80,0.00,,,0.00,0,TxWx,2013-02-23 12:01:00,
2013-02-23 06:06:00,24.6,19.0,29.93,SW,228,9.0,9.0,80,0.00,,,0.00,0,TxWx,2013-02-23 12:06:00,
2013-02-23 06:11:00,24.6,19.0,29.94,WSW,244,6.9,7.2,81,0.00,,,0.00,0,TxWx,2013-02-23 12:11:00,
2013-02-23 06:16:00,24.5,18.0,29.94,West,268,10.5,10.5,81,0.00,,,0.00,0,TxWx,2013-02-23 12:16:00,
2013-02-23 06:21:00,24.5,18.0,29.94,West,261,5.4,5.7,81,0.00,,,0.00,0,TxWx,2013-02-23 12:21:00,
2013-02-23 06:26:00,24.4,18.0,29.94,WSW,253,5.1,5.1,81,0.00,,,0.00,1,TxWx,2013-02-23 12:26:00,
2013-02-23 06:31:00,24.3,18.0,29.95,West,270,7.5,7.5,81,0.00,,,0.00,2,TxWx,2013-02-23 12:31:00,
2013-02-23 06:36:00,24.3,18.0,29.95,WSW,253,4.2,5.1,81,0.00,,,0.00,4,TxWx,2013-02-23 12:36:00,
2013-02-23 06:42:00,24.2,18.0,29.95,WSW,257,9.0,9.3,81,0.00,,,0.00,6,TxWx,2013-02-23 12:42:00,
2013-02-23 06:47:00,24.1,18.0,29.95,West,279,8.7,9.9,81,0.00,,,0.00,9,TxWx,2013-02-23 12:47:00,
2013-02-23 06:52:00,24.2,18.0,29.95,West,276,7.2,7.2,81,0.00,,,0.00,12,TxWx,2013-02-23 12:52:00,
2013-02-23 06:57:00,24.2,18.0,29.95,WSW,250,7.8,7.8,80,0.00,,,0.00,16,TxWx,2013-02-23 12:57:00,
2013-02-23 07:02:00,24.3,18.0,29.95,WSW,252,4.5,4.8,80,0.00,,,0.00,21,TxWx,2013-02-23 13:02:00,
2013-02-23 07:08:00,24.2,18.0,29.94,WNW,283,11.7,12.3,80,0.00,,,0.00,28,TxWx,2013-02-23 13:08:00,
2013-02-23 07:13:00,24.3,18.0,29.94,West,279,6.9,7.2,80,0.00,,,0.00,33,TxWx,2013-02-23 13:13:00,
2013-02-23 07:18:00,24.3,17.0,29.94,West,276,8.1,9.9,79,0.00,,,0.00,40,TxWx,2013-02-23 13:18:00,
2013-02-23 07:23:00,24.4,17.0,29.94,WNW,290,6.0,6.0,79,0.00,,,0.00,49,TxWx,2013-02-23 13:23:00,
2013-02-23 07:28:00,24.5,17.0,29.94,West,266,5.7,5.7,79,0.00,,,0.00,59,TxWx,2013-02-23 13:28:00,
2013-02-23 07:33:00,24.5,17.0,29.94,West,275,5.7,5.7,79,0.00,,,0.00,67,TxWx,2013-02-23 13:33:00,
2013-02-23 07:38:00,24.5,18.0,29.94,WSW,243,4.2,4.8,79,0.00,,,0.00,71,TxWx,2013-02-23 13:38:00,
2013-02-23 07:43:00,24.5,19.0,29.94,SW,234,8.1,8.4,80,0.00,,,0.00,87,TxWx,2013-02-23 13:43:00,
2013-02-23 07:48:00,24.4,18.0,29.94,WSW,250,6.3,6.6,80,0.00,,,0.00,95,TxWx,2013-02-23 13:48:00,
2013-02-23 07:54:00,24.5,19.0,29.94,WSW,251,5.7,5.7,80,0.00,,,0.00,112,TxWx,2013-02-23 13:54:00,
2013-02-23 07:59:00,24.5,19.0,29.93,West,259,9.0,9.0,80,0.00,,,0.00,116,TxWx,2013-02-23 13:59:00,
2013-02-23 08:04:00,24.6,18.0,29.93,WSW,245,6.3,6.3,79,0.00,,,0.00,130,TxWx,2013-02-23 14:04:00,
2013-02-23 08:09:00,24.8,18.0,29.93,West,261,4.8,4.8,79,0.00,,,0.00,134,TxWx,2013-02-23 14:09:00,
2013-02-23 08:14:00,24.9,18.0,29.93,WSW,245,6.3,6.3,78,0.00,,,0.00,153,TxWx,2013-02-23 14:14:00,
2013-02-23 08:19:00,25.0,18.0,29.93,WSW,248,6.6,6.6,78,0.00,,,0.00,160,TxWx,2013-02-23 14:19:00,
2013-02-23 08:25:00,25.0,18.0,29.93,West,259,6.6,7.2,77,0.00,,,0.00,167,TxWx,2013-02-23 14:25:00,
2013-02-23 08:30:00,24.9,18.0,29.94,WSW,245,7.2,7.8,76,0.00,,,0.00,201,TxWx,2013-02-23 14:30:00,
2013-02-23 08:35:00,25.2,18.0,29.94,WSW,246,7.5,8.1,76,0.00,,,0.00,197,TxWx,2013-02-23 14:35:00,
2013-02-23 08:40:00,25.2,17.0,29.93,West,272,8.7,9.6,75,0.00,,,0.00,212,TxWx,2013-02-23 14:40:00,
2013-02-23 08:45:00,25.1,17.0,29.93,WSW,245,12.0,12.0,74,0.00,,,0.00,230,TxWx,2013-02-23 14:45:00,
2013-02-23 08:50:00,25.1,17.0,29.94,WSW,246,9.9,10.2,73,0.00,,,0.00,241,TxWx,2013-02-23 14:50:00,
2013-02-23 08:56:00,25.2,17.0,29.94,West,267,15.3,15.3,73,0.00,,,0.00,262,TxWx,2013-02-23 14:56:00,
2013-02-23 09:01:00,25.5,17.0,29.94,SW,225,10.2,10.2,73,0.00,,,0.00,290,TxWx,2013-02-23 15:01:00,
2013-02-23 09:06:00,25.3,16.0,29.94,West,260,10.2,10.8,72,0.00,,,0.00,352,TxWx,2013-02-23 15:06:00,
2013-02-23 09:12:00,25.5,17.0,29.94,West,275,13.5,13.5,71,0.00,,,0.00,691,TxWx,2013-02-23 15:12:00,
2013-02-23 09:17:00,25.9,16.0,29.94,West,260,10.5,10.5,70,0.00,,,0.00,319,TxWx,2013-02-23 15:17:00,
2013-02-23 09:22:00,25.9,16.0,29.94,West,278,10.5,10.5,70,0.00,,,0.00,246,TxWx,2013-02-23 15:22:00,
2013-02-23 09:27:00,25.8,16.0,29.94,West,262,16.2,16.2,69,0.00,,,0.00,263,TxWx,2013-02-23 15:27:00,
2013-02-23 09:33:00,25.8,16.0,29.94,WSW,256,8.4,8.7,69,0.00,,,0.00,218,TxWx,2013-02-23 15:33:00,
2013-02-23 09:38:00,26.0,16.0,29.94,West,264,6.6,7.5,68,0.00,,,0.00,285,TxWx,2013-02-23 15:38:00,
2013-02-23 09:43:00,26.2,16.0,29.93,WNW,291,5.1,5.1,67,0.00,,,0.00,865,TxWx,2013-02-23 15:43:00,
2013-02-23 09:48:00,26.3,16.0,29.93,WSW,249,16.8,16.8,67,0.00,,,0.00,709,TxWx,2013-02-23 15:48:00,
2013-02-23 09:53:00,26.3,15.0,29.93,West,268,10.8,10.8,67,0.00,,,0.00,279,TxWx,2013-02-23 15:53:00,
2013-02-23 09:58:00,26.3,16.0,29.93,WNW,296,5.4,6.9,68,0.00,,,0.00,297,TxWx,2013-02-23 15:58:00,
2013-02-23 10:03:00,26.3,16.0,29.93,West,276,10.8,12.0,67,0.00,,,0.00,293,TxWx,2013-02-23 16:03:00,
2013-02-23 10:08:00,26.2,16.0,29.94,West,281,13.5,13.5,68,0.00,,,0.00,309,TxWx,2013-02-23 16:08:00,
2013-02-23 10:13:00,26.1,15.0,29.94,West,259,9.6,9.9,67,0.00,,,0.00,242,TxWx,2013-02-23 16:13:00,
2013-02-23 10:19:00,26.4,15.0,29.94,West,259,6.0,6.0,67,0.00,,,0.00,221,TxWx,2013-02-23 16:19:00,
2013-02-23 10:24:00,26.1,16.0,29.94,West,271,10.2,10.2,68,0.00,,,0.00,234,TxWx,2013-02-23 16:24:00,
2013-02-23 10:29:00,26.4,16.0,29.94,West,265,12.6,12.6,69,0.00,,,0.00,235,TxWx,2013-02-23 16:29:00,
2013-02-23 10:34:00,26.2,16.0,29.94,WSW,237,10.5,10.5,69,0.00,,,0.00,237,TxWx,2013-02-23 16:34:00,
2013-02-23 10:39:00,26.1,16.0,29.95,West,261,9.3,9.3,69,0.00,,,0.00,231,TxWx,2013-02-23 16:39:00,
2013-02-23 10:44:00,26.2,16.0,29.95,WSW,254,12.3,12.6,69,0.00,,,0.00,238,TxWx,2013-02-23 16:44:00,
2013-02-23 10:49:00,26.2,16.0,29.95,WSW,241,12.6,13.5,69,0.00,,,0.00,254,TxWx,2013-02-23 16:49:00,
2013-02-23 10:54:00,26.4,16.0,29.94,WNW,290,13.5,14.7,69,0.00,,,0.00,313,TxWx,2013-02-23 16:54:00,
2013-02-23 11:00:00,26.3,15.0,29.95,West,259,13.8,13.8,66,0.00,,,0.00,319,TxWx,2013-02-23 17:00:00,
2013-02-23 11:05:00,26.4,15.0,29.94,SW,222,12.3,14.1,66,0.00,,,0.00,367,TxWx,2013-02-23 17:05:00,
2013-02-23 11:10:00,26.6,16.0,29.94,WNW,284,9.6,11.4,66,0.00,,,0.00,371,TxWx,2013-02-23 17:10:00,
2013-02-23 11:15:00,26.9,16.0,29.94,West,271,9.6,9.6,66,0.00,,,0.00,351,TxWx,2013-02-23 17:15:00,
2013-02-23 11:21:00,26.7,16.0,29.94,WSW,250,15.3,17.4,65,0.00,,,0.00,381,TxWx,2013-02-23 17:21:00,
2013-02-23 11:26:00,26.8,16.0,29.94,WSW,249,10.8,10.8,65,0.00,,,0.00,407,TxWx,2013-02-23 17:26:00,
2013-02-23 11:31:00,27.0,16.0,29.93,West,265,9.3,10.2,65,0.00,,,0.00,451,TxWx,2013-02-23 17:31:00,
2013-02-23 11:37:00,27.3,16.0,29.93,West,268,14.7,14.7,65,0.00,,,0.00,432,TxWx,2013-02-23 17:37:00,
2013-02-23 11:42:00,26.9,15.0,29.93,WSW,254,9.6,9.9,64,0.00,,,0.00,414,TxWx,2013-02-23 17:42:00,
2013-02-23 11:47:00,26.7,15.0,29.93,SW,236,10.8,10.8,64,0.00,,,0.00,449,TxWx,2013-02-23 17:47:00,
2013-02-23 11:52:00,26.8,16.0,29.93,WSW,246,11.1,11.1,65,0.00,,,0.00,516,TxWx,2013-02-23 17:52:00,
2013-02-23 11:57:00,27.2,16.0,29.93,WSW,256,11.1,15.0,65,0.00,,,0.00,406,TxWx,2013-02-23 17:57:00,
2013-02-23 12:03:00,27.7,17.0,29.93,West,281,10.8,12.0,65,0.00,,,0.00,421,TxWx,2013-02-23 18:03:00,
2013-02-23 12:08:00,27.0,16.0,29.93,WSW,239,13.2,13.8,65,0.00,,,0.00,378,TxWx,2013-02-23 18:08:00,
2013-02-23 12:13:00,26.8,16.0,29.93,SW,229,11.1,14.7,66,0.00,,,0.00,330,TxWx,2013-02-23 18:13:00,
2013-02-23 12:18:00,27.3,16.0,29.93,WSW,240,12.0,12.0,67,0.00,,,0.00,344,TxWx,2013-02-23 18:18:00,
2013-02-23 12:23:00,27.1,16.0,29.92,WSW,250,6.0,6.0,65,0.00,,,0.00,396,TxWx,2013-02-23 18:23:00,
2013-02-23 12:29:00,26.9,16.0,29.92,SW,231,7.8,9.3,65,0.00,,,0.00,402,TxWx,2013-02-23 18:29:00,
2013-02-23 12:34:00,27.1,16.0,29.92,West,263,7.5,8.1,66,0.00,,,0.00,426,TxWx,2013-02-23 18:34:00,
2013-02-23 12:39:00,27.5,16.0,29.92,West,269,12.9,12.9,65,0.00,,,0.00,401,TxWx,2013-02-23 18:39:00,
2013-02-23 12:44:00,26.8,16.0,29.92,West,260,10.2,10.2,65,0.00,,,0.00,375,TxWx,2013-02-23 18:44:00,
2013-02-23 12:50:00,27.2,16.0,29.92,WSW,240,6.6,8.1,66,0.00,,,0.00,313,TxWx,2013-02-23 18:50:00,
2013-02-23 12:55:00,27.3,16.0,29.92,WSW,238,6.9,7.2,66,0.00,,,0.00,296,TxWx,2013-02-23 18:55:00,
2013-02-23 13:00:00,27.0,16.0,29.92,WSW,258,9.0,9.0,65,0.00,,,0.00,306,TxWx,2013-02-23 19:00:00,
2013-02-23 13:05:00,26.9,16.0,29.91,West,266,10.2,10.5,67,0.00,,,0.00,291,TxWx,2013-02-23 19:05:00,
2013-02-23 13:10:00,27.0,16.0,29.91,West,270,7.8,8.1,67,0.00,,,0.00,293,TxWx,2013-02-23 19:10:00,
2013-02-23 13:15:00,27.1,16.0,29.91,WSW,239,10.5,12.3,67,0.00,,,0.00,275,TxWx,2013-02-23 19:15:00,
2013-02-23 13:21:00,27.1,17.0,29.91,West,259,9.6,9.6,67,0.00,,,0.00,265,TxWx,2013-02-23 19:21:00,
2013-02-23 13:26:00,27.0,16.0,29.91,WNW,282,10.8,10.8,67,0.00,,,0.00,259,TxWx,2013-02-23 19:26:00,
2013-02-23 13:31:00,26.9,16.0,29.91,WSW,243,12.6,14.4,67,0.00,,,0.00,263,TxWx,2013-02-23 19:31:00,
2013-02-23 13:37:00,26.9,17.0,29.91,WSW,257,14.1,14.1,67,0.00,,,0.00,252,TxWx,2013-02-23 19:37:00,
2013-02-23 13:41:00,27.0,17.0,29.91,West,259,12.3,13.2,68,0.00,,,0.00,231,TxWx,2013-02-23 19:41:00,
2013-02-23 13:47:00,27.0,17.0,29.92,WSW,251,7.5,7.8,68,0.00,,,0.00,208,TxWx,2013-02-23 19:47:00,
2013-02-23 13:52:00,27.0,17.0,29.92,West,277,6.3,6.3,68,0.00,,,0.00,203,TxWx,2013-02-23 19:52:00,
2013-02-23 13:57:00,26.9,17.0,29.91,WSW,256,12.6,12.6,67,0.00,,,0.00,204,TxWx,2013-02-23 19:57:00,
2013-02-23 14:02:00,27.1,17.0,29.91,West,271,5.7,5.7,68,0.00,,,0.00,201,TxWx,2013-02-23 20:02:00,
2013-02-23 14:07:00,27.1,17.0,29.91,WNW,300,6.6,6.6,68,0.00,,,0.00,198,TxWx,2013-02-23 20:07:00,
2013-02-23 14:12:00,26.9,17.0,29.91,West,269,8.1,8.1,67,0.00,,,0.00,184,TxWx,2013-02-23 20:12:00,
2013-02-23 14:18:00,26.9,17.0,29.92,West,271,11.7,11.7,68,0.00,,,0.00,168,TxWx,2013-02-23 20:18:00,
2013-02-23 14:23:00,26.8,17.0,29.92,West,267,9.6,11.1,68,0.00,,,0.00,160,TxWx,2013-02-23 20:23:00,
2013-02-23 14:28:00,27.0,17.0,29.92,West,262,6.0,6.0,69,0.00,,,0.00,151,TxWx,2013-02-23 20:28:00,
2013-02-23 14:33:00,26.7,17.0,29.92,West,263,14.1,14.4,68,0.00,,,0.00,153,TxWx,2013-02-23 20:33:00,
2013-02-23 14:38:00,26.6,17.0,29.92,West,272,6.9,8.1,70,0.00,,,0.00,155,TxWx,2013-02-23 20:38:00,
2013-02-23 14:43:00,26.8,17.0,29.93,WSW,244,7.2,7.2,70,0.00,,,0.00,145,TxWx,2013-02-23 20:43:00,
2013-02-23 14:49:00,26.7,18.0,29.93,WNW,287,9.9,9.9,70,0.00,,,0.00,130,TxWx,2013-02-23 20:49:00,
2013-02-23 14:54:00,26.3,17.0,29.93,West,259,7.8,8.1,70,0.00,,,0.00,146,TxWx,2013-02-23 20:54:00,
2013-02-23 14:59:00,26.8,18.0,29.93,West,266,6.6,6.6,71,0.00,,,0.00,131,TxWx,2013-02-23 20:59:00,
2013-02-23 15:04:00,26.6,18.0,29.92,West,259,11.4,11.4,70,0.00,,,0.00,122,TxWx,2013-02-23 21:04:00,
2013-02-23 15:09:00,26.7,18.0,29.93,WSW,249,6.6,6.6,71,0.00,,,0.00,102,TxWx,2013-02-23 21:09:00,
2013-02-23 15:14:00,26.5,17.0,29.92,West,264,10.8,10.8,71,0.00,,,0.00,102,TxWx,2013-02-23 21:14:00,
2013-02-23 15:20:00,26.6,18.0,29.92,SSW,213,5.4,7.5,71,0.00,,,0.00,92,TxWx,2013-02-23 21:20:00,
2013-02-23 15:25:00,26.4,17.0,29.92,WSW,256,7.2,7.8,71,0.00,,,0.00,94,TxWx,2013-02-23 21:25:00,
2013-02-23 15:30:00,26.3,17.0,29.92,West,261,9.6,10.5,72,0.00,,,0.00,89,TxWx,2013-02-23 21:30:00,
2013-02-23 15:35:00,26.3,17.0,29.92,West,262,11.4,11.4,72,0.00,,,0.00,87,TxWx,2013-02-23 21:35:00,
2013-02-23 15:40:00,26.1,17.0,29.92,WSW,240,8.7,11.1,72,0.00,,,0.00,84,TxWx,2013-02-23 21:40:00,
2013-02-23 15:46:00,26.2,17.0,29.92,West,260,7.5,7.5,73,0.00,,,0.00,69,TxWx,2013-02-23 21:46:00,
2013-02-23 15:51:00,26.1,17.0,29.92,WSW,245,8.7,9.0,73,0.00,,,0.00,67,TxWx,2013-02-23 21:51:00,
2013-02-23 15:56:00,26.1,18.0,29.92,West,279,12.9,14.4,73,0.00,,,0.00,73,TxWx,2013-02-23 21:56:00,
2013-02-23 16:01:00,26.0,18.0,29.92,West,261,9.9,9.9,73,0.00,,,0.00,66,TxWx,2013-02-23 22:01:00,
2013-02-23 16:06:00,26.0,18.0,29.92,West,272,8.7,9.0,73,0.00,,,0.00,56,TxWx,2013-02-23 22:06:00,
2013-02-23 16:11:00,26.2,18.0,29.92,WSW,243,6.3,6.3,73,0.00,,,0.00,48,TxWx,2013-02-23 22:11:00,
2013-02-23 16:17:00,26.1,18.0,29.92,West,266,6.3,7.2,73,0.00,,,0.00,44,TxWx,2013-02-23 22:17:00,
2013-02-23 16:22:00,26.1,18.0,29.92,West,270,5.7,6.0,73,0.00,,,0.00,40,TxWx,2013-02-23 22:22:00,
2013-02-23 16:27:00,26.3,18.0,29.93,WNW,294,6.3,6.3,74,0.00,,,0.00,42,TxWx,2013-02-23 22:27:00,
2013-02-23 16:32:00,26.2,18.0,29.93,WSW,257,8.4,8.7,73,0.00,,,0.00,38,TxWx,2013-02-23 22:32:00,
2013-02-23 16:37:00,26.2,18.0,29.93,West,265,6.0,6.6,73,0.00,,,0.00,35,TxWx,2013-02-23 22:37:00,
2013-02-23 16:43:00,26.2,18.0,29.93,WSW,244,7.2,8.1,73,0.00,,,0.00,30,TxWx,2013-02-23 22:43:00,
2013-02-23 16:48:00,26.2,18.0,29.93,West,272,5.1,5.1,74,0.00,,,0.00,25,TxWx,2013-02-23 22:48:00,
2013-02-23 16:53:00,26.0,18.0,29.93,WSW,248,6.3,6.3,73,0.00,,,0.00,20,TxWx,2013-02-23 22:53:00,
2013-02-23 16:58:00,26.1,18.0,29.93,WSW,255,6.9,6.9,74,0.00,,,0.00,16,TxWx,2013-02-23 22:58:00,
2013-02-23 17:03:00,26.0,18.0,29.93,WSW,253,8.1,8.1,74,0.00,,,0.00,14,TxWx,2013-02-23 23:03:00,
2013-02-23 17:08:00,26.1,18.0,29.93,WSW,247,6.3,6.3,74,0.00,,,0.00,10,TxWx,2013-02-23 23:08:00,
2013-02-23 17:13:00,26.1,18.0,29.93,West,272,5.7,5.7,74,0.00,,,0.00,7,TxWx,2013-02-23 23:13:00,
2013-02-23 17:18:00,26.0,18.0,29.93,West,269,5.4,5.7,74,0.00,,,0.00,6,TxWx,2013-02-23 23:18:00,
2013-02-23 17:24:00,26.0,18.0,29.93,West,266,5.1,5.4,75,0.00,,,0.00,3,TxWx,2013-02-23 23:24:00,
2013-02-23 17:29:00,26.0,18.0,29.93,WSW,250,6.3,6.6,75,0.00,,,0.00,2,TxWx,2013-02-23 23:29:00,
2013-02-23 17:34:00,26.0,18.0,29.93,West,270,7.8,7.8,75,0.00,,,0.00,1,TxWx,2013-02-23 23:34:00,
2013-02-23 17:39:00,26.0,18.0,29.93,SW,227,7.8,7.8,75,0.00,,,0.00,0,TxWx,2013-02-23 23:39:00,
2013-02-23 17:45:00,25.9,18.0,29.94,West,263,9.3,9.3,75,0.00,,,0.00,0,TxWx,2013-02-23 23:45:00,
2013-02-23 17:50:00,26.0,18.0,29.94,West,281,4.8,5.7,75,0.00,,,0.00,0,TxWx,2013-02-23 23:50:00,
2013-02-23 17:55:00,25.9,18.0,29.94,West,268,7.8,7.8,74,0.00,,,0.00,0,TxWx,2013-02-23 23:55:00,
2013-02-23 18:00:00,25.9,18.0,29.94,WSW,255,7.2,7.2,75,0.00,,,0.00,0,TxWx,2013-02-24 00:00:00,
2013-02-23 18:05:00,25.9,18.0,29.94,West,279,8.1,8.4,74,0.00,,,0.00,0,TxWx,2013-02-24 00:05:00,
2013-02-23 18:11:00,26.0,18.0,29.95,West,266,9.9,9.9,75,0.00,,,0.00,0,TxWx,2013-02-24 00:11:00,
2013-02-23 18:16:00,26.0,18.0,29.95,West,266,5.1,6.0,75,0.00,,,0.00,0,TxWx,2013-02-24 00:16:00,
2013-02-23 18:21:00,26.1,18.0,29.95,West,259,5.7,6.3,75,0.00,,,0.00,0,TxWx,2013-02-24 00:21:00,
2013-02-23 18:26:00,26.0,18.0,29.95,WSW,245,6.6,7.5,75,0.00,,,0.00,0,TxWx,2013-02-24 00:26:00,
2013-02-23 18:31:00,26.0,18.0,29.95,WNW,298,7.2,7.2,75,0.00,,,0.00,0,TxWx,2013-02-24 00:31:00,
2013-02-23 18:36:00,26.0,18.0,29.95,West,274,7.2,8.1,75,0.00,,,0.00,0,TxWx,2013-02-24 00:36:00,
2013-02-23 18:42:00,26.1,18.0,29.95,WSW,238,8.4,9.9,75,0.00,,,0.00,0,TxWx,2013-02-24 00:42:00,
2013-02-23 18:47:00,25.9,18.0,29.95,West,262,6.0,6.9,75,0.00,,,0.00,0,TxWx,2013-02-24 00:47:00,
2013-02-23 18:52:00,26.0,18.0,29.95,West,278,4.5,5.1,75,0.00,,,0.00,0,TxWx,2013-02-24 00:52:00,
2013-02-23 18:57:00,26.1,18.0,29.96,West,263,4.5,5.1,75,0.00,,,0.00,0,TxWx,2013-02-24 00:57:00,
2013-02-23 19:02:00,26.0,18.0,29.96,West,262,8.4,8.7,75,0.00,,,0.00,0,TxWx,2013-02-24 01:02:00,
2013-02-23 19:07:00,26.0,18.0,29.96,WNW,292,5.1,5.1,75,0.00,,,0.00,0,TxWx,2013-02-24 01:07:00,
2013-02-23 19:13:00,26.1,18.0,29.96,WNW,290,3.3,3.9,75,0.00,,,0.00,0,TxWx,2013-02-24 01:13:00,
2013-02-23 19:18:00,26.1,18.0,29.96,West,268,7.5,8.7,74,0.00,,,0.00,0,TxWx,2013-02-24 01:18:00,
2013-02-23 19:23:00,26.1,18.0,29.96,West,277,5.4,5.4,74,0.00,,,0.00,0,TxWx,2013-02-24 01:23:00,
2013-02-23 19:28:00,26.1,18.0,29.96,West,269,9.0,10.2,74,0.00,,,0.00,0,TxWx,2013-02-24 01:28:00,
2013-02-23 19:33:00,26.1,18.0,29.96,West,266,6.6,6.6,75,0.00,,,0.00,0,TxWx,2013-02-24 01:33:00,
2013-02-23 19:39:00,26.0,18.0,29.96,West,260,4.5,4.5,75,0.00,,,0.00,0,TxWx,2013-02-24 01:39:00,
2013-02-23 19:44:00,26.1,18.0,29.96,WNW,292,3.3,3.3,75,0.00,,,0.00,0,TxWx,2013-02-24 01:44:00,
2013-02-23 19:49:00,26.0,18.0,29.96,West,268,5.7,6.0,75,0.00,,,0.00,0,TxWx,2013-02-24 01:49:00,
2013-02-23 19:54:00,26.0,18.0,29.96,WSW,255,7.8,8.1,75,0.00,,,0.00,0,TxWx,2013-02-24 01:54:00,
2013-02-23 19:59:00,26.0,18.0,29.96,West,279,8.7,8.7,76,0.00,,,0.00,0,TxWx,2013-02-24 01:59:00,
2013-02-23 20:05:00,26.0,18.0,29.95,West,262,4.5,5.1,76,0.00,,,0.00,0,TxWx,2013-02-24 02:05:00,
2013-02-23 20:10:00,26.0,18.0,29.95,WNW,284,4.8,5.1,76,0.00,,,0.00,0,TxWx,2013-02-24 02:10:00,
2013-02-23 20:15:00,26.0,18.0,29.95,WSW,257,3.9,4.5,76,0.00,,,0.00,0,TxWx,2013-02-24 02:15:00,
2013-02-23 20:20:00,26.0,19.0,29.95,West,272,4.8,5.4,77,0.00,,,0.00,0,TxWx,2013-02-24 02:20:00,
2013-02-23 20:26:00,26.0,19.0,29.96,West,260,5.1,5.1,77,0.00,,,0.00,0,TxWx,2013-02-24 02:26:00,
2013-02-23 20:31:00,25.9,19.0,29.96,West,259,4.5,4.5,77,0.00,,,0.00,0,TxWx,2013-02-24 02:31:00,
2013-02-23 20:36:00,26.0,19.0,29.95,WSW,254,3.6,3.6,77,0.00,,,0.00,0,TxWx,2013-02-24 02:36:00,
2013-02-23 20:42:00,25.9,19.0,29.95,West,270,6.0,6.0,77,0.00,,,0.00,0,TxWx,2013-02-24 02:42:00,
2013-02-23 20:47:00,26.0,19.0,29.95,West,278,3.6,3.6,77,0.00,,,0.00,0,TxWx,2013-02-24 02:47:00,
2013-02-23 20:52:00,25.9,19.0,29.95,WSW,249,5.1,5.4,77,0.00,,,0.00,0,TxWx,2013-02-24 02:52:00,
2013-02-23 20:57:00,25.9,19.0,29.95,West,279,6.0,6.3,77,0.00,,,0.00,0,TxWx,2013-02-24 02:57:00,
2013-02-23 21:02:00,26.0,19.0,29.95,WNW,294,3.3,3.3,77,0.00,,,0.00,0,TxWx,2013-02-24 03:02:00,
2013-02-23 21:07:00,26.0,19.0,29.96,West,280,4.5,4.5,77,0.00,,,0.00,0,TxWx,2013-02-24 03:07:00,
2013-02-23 21:13:00,26.0,19.0,29.95,West,277,5.1,5.4,77,0.00,,,0.00,0,TxWx,2013-02-24 03:13:00,
2013-02-23 21:18:00,26.0,19.0,29.95,West,271,4.5,4.8,77,0.00,,,0.00,0,TxWx,2013-02-24 03:18:00,
2013-02-23 21:23:00,26.0,19.0,29.95,West,267,5.1,6.0,77,0.00,,,0.00,0,TxWx,2013-02-24 03:23:00,
2013-02-23 21:28:00,25.9,19.0,29.95,West,280,6.6,6.9,77,0.00,,,0.00,0,TxWx,2013-02-24 03:28:00,
2013-02-23 21:34:00,25.9,19.0,29.95,West,266,5.1,5.4,77,0.00,,,0.00,0,TxWx,2013-02-24 03:34:00,
2013-02-23 21:39:00,25.9,19.0,29.95,West,262,8.1,8.1,77,0.00,,,0.00,0,TxWx,2013-02-24 03:39:00,
2013-02-23 21:44:00,25.9,19.0,29.95,WSW,253,4.8,5.1,78,0.00,,,0.00,0,TxWx,2013-02-24 03:44:00,
2013-02-23 21:49:00,25.9,19.0,29.95,West,275,5.7,6.0,77,0.00,,,0.00,0,TxWx,2013-02-24 03:49:00,
2013-02-23 21:54:00,25.9,19.0,29.95,West,265,6.0,6.9,78,0.00,,,0.00,0,TxWx,2013-02-24 03:54:00,
2013-02-23 22:00:00,25.9,19.0,29.95,WNW,283,5.4,5.7,78,0.00,,,0.00,0,TxWx,2013-02-24 04:00:00,
2013-02-23 22:05:00,25.9,19.0,29.95,West,265,4.5,4.5,78,0.00,,,0.00,0,TxWx,2013-02-24 04:05:00,
2013-02-23 22:10:00,25.9,19.0,29.95,WNW,295,4.5,4.5,78,0.00,,,0.00,0,TxWx,2013-02-24 04:10:00,
2013-02-23 22:15:00,25.8,19.0,29.95,West,265,3.6,4.5,78,0.00,,,0.00,0,TxWx,2013-02-24 04:15:00,
2013-02-23 22:21:00,25.8,19.0,29.95,WNW,283,5.4,5.4,78,0.00,,,0.00,0,TxWx,2013-02-24 04:21:00,
2013-02-23 22:26:00,25.8,19.0,29.95,West,275,3.6,3.6,78,0.00,,,0.00,0,TxWx,2013-02-24 04:26:00,
2013-02-23 22:31:00,25.7,19.0,29.95,WSW,246,4.2,4.5,78,0.00,,,0.00,0,TxWx,2013-02-24 04:31:00,
2013-02-23 22:36:00,25.6,19.0,29.95,West,280,9.3,9.3,78,0.00,,,0.00,0,TxWx,2013-02-24 04:36:00,
2013-02-23 22:41:00,25.6,19.0,29.95,WSW,254,5.4,6.0,78,0.00,,,0.00,0,TxWx,2013-02-24 04:41:00,
2013-02-23 22:46:00,25.6,19.0,29.95,West,260,5.7,6.9,79,0.00,,,0.00,0,TxWx,2013-02-24 04:46:00,
2013-02-23 22:52:00,25.6,19.0,29.95,WSW,254,10.2,10.2,78,0.00,,,0.00,0,TxWx,2013-02-24 04:52:00,
2013-02-23 22:57:00,25.6,19.0,29.95,West,265,6.3,6.6,78,0.00,,,0.00,0,TxWx,2013-02-24 04:57:00,
2013-02-23 23:00:00,25.6,19.0,29.95,West,265,8.1,8.7,78,0.00,,,0.00,0,TxWx,2013-02-24 05:00:00,
2013-02-23 23:01:00,25.6,19.0,29.95,West,269,8.1,8.7,78,0.00,,,0.00,0,TxWx,2013-02-24 05:01:00,
2013-02-23 23:02:00,25.6,19.0,29.95,WSW,251,7.5,7.5,78,0.00,,,0.00,0,TxWx,2013-02-24 05:02:00,
2013-02-23 23:07:00,25.6,19.0,29.95,West,264,4.8,5.7,78,0.00,,,0.00,0,TxWx,2013-02-24 05:07:00,
2013-02-23 23:12:00,25.6,19.0,29.95,West,278,7.5,8.1,78,0.00,,,0.00,0,TxWx,2013-02-24 05:12:00,
2013-02-23 23:17:00,25.5,19.0,29.95,WSW,258,6.3,6.3,78,0.00,,,0.00,0,TxWx,2013-02-24 05:17:00,
2013-02-23 23:22:00,25.6,19.0,29.95,West,260,5.7,5.7,78,0.00,,,0.00,0,TxWx,2013-02-24 05:22:00,
2013-02-23 23:27:00,25.5,19.0,29.95,West,266,7.8,8.1,78,0.00,,,0.00,0,TxWx,2013-02-24 05:27:00,
2013-02-23 23:33:00,25.4,18.0,29.95,West,265,6.9,7.5,78,0.00,,,0.00,0,TxWx,2013-02-24 05:33:00,
2013-02-23 23:38:00,25.3,18.0,29.95,West,267,9.0,10.8,78,0.00,,,0.00,0,TxWx,2013-02-24 05:38:00,
2013-02-23 23:43:00,25.2,18.0,29.95,West,273,6.9,7.2,79,0.00,,,0.00,0,TxWx,2013-02-24 05:43:00,
2013-02-23 23:48:00,24.9,18.0,29.95,West,265,8.1,8.1,79,0.00,,,0.00,0,TxWx,2013-02-24 05:48:00,
2013-02-23 23:53:00,24.7,18.0,29.95,WSW,252,9.0,9.6,79,0.00,,,0.00,0,TxWx,2013-02-24 05:53:00,
2013-02-23 23:59:00,24.5,18.0,29.95,West,273,8.4,8.7,80,0.00,,,0.00,0,TxWx,2013-02-24 05:59:00,